SCP
0 0 0 0 0 0 0 0 0 0 0 0 0 0 0 0 0 0 0 0 0 0 0 0 0 0 0 0 0 0 0 0 0 0 0 0 0 0 0 0 0 0 0
0 0 0 0 0 0 0 0 0 0 0 0 0 0 0 0 0 0 0 0 0 0 0 0 0 0 0 0 0 0 0 0 0 0 0 0 0 0 0 0 0 0 0
0 0 0 0 0 0 0 0 0 0 0 0 0 0 0 0 0 0 0 0 0 0 0 0 0 0 0 0 0 0 0 0 0 0 0 0 0 0 0 0 0 0 0
0 0 0 0 0 0 0 0 0 0 0 0 0 0 0 0 0 0 0 0 0 0 0 0 0 0 0 0 0 0 1 1 1 1 0 0 1 1 0 0 0 0 0
0 0 0 0 0 0 0 0 0 0 0 0 0 0 0 0 0 0 0 0 0 0 0 0 0 0 0 0 0 0 0 1 1 1 1 0 0 0 0 0 0 0 0
0 0 0 0 0 0 0 0 0 0 0 0 0 0 0 0 0 0 0 0 0 0 0 0 0 0 0 0 0 0 0 0 0 0 0 0 0 0 0 0 0 0 0
0 0 0 0 0 0 0 0 0 0 0 0 0 0 0 0 0 0 0 0 0 0 0 0 0 0 0 0 0 0 0 0 0 0 0 0 0 0 0 0 0 0 0
0 0 0 0 0 0 0 0 0 0 0 0 0 0 0 0 0 0 0 0 0 0 0 0 0 0 0 0 0 0 0 0 0 0 0 0 0 0 0 0 0 0 0
0 0 0 0 0 0 0 0 0 0 0 0 0 0 0 0 0 0 0 0 0 0 0 0 0 0 0 0 0 0 0 0 0 0 0 0 0 0 0 0 0 0 0
0 0 0 0 0 0 0 0 0 0 0 0 0 0 0 0 0 0 0 0 0 0 0 0 0 0 0 0 0 0 0 0 0 0 0 0 0 0 0 0 0 0 0
0 0 0 0 0 0 0 0 0 0 0 0 0 0 0 0 0 0 0 0 0 0 0 0 0 0 0 0 0 0 0 0 0 0 0 0 0 0 0 0 0 0 0
0 0 0 0 0 0 0 0 0 0 0 0 0 0 0 0 0 0 0 0 0 0 0 0 0 0 0 0 0 0 0 0 0 0 0 0 0 0 0 0 0 0 0
0 0 0 0 0 0 0 0 0 0 0 0 0 0 0 0 0 0 0 0 0 0 0 0 0 0 0 0 0 0 0 0 0 0 0 0 0 0 0 0 0 0 0
0 0 0 0 0 0 0 0 0 0 0 0 0 0 0 0 0 0 0 0 0 0 0 0 0 0 0 0 0 0 0 0 0 0 0 0 0 0 0 0 0 0 0
0 0 0 0 0 0 0 0 0 0 0 0 0 0 0 0 0 0 0 0 0 0 0 0 0 0 0 0 0 0 0 0 0 0 0 0 0 0 0 0 0 0 0
0 0 0 0 0 0 0 0 0 0 0 0 0 0 0 0 0 0 0 0 0 0 0 0 0 0 0 0 0 0 0 0 0 0 0 0 0 0 0 0 0 0 0
0 0 0 0 0 0 0 0 0 0 0 0 0 0 0 0 0 0 0 0 0 0 0 0 0 0 0 0 0 0 0 0 0 0 0 0 0 0 0 0 0 0 0
0 0 0 0 0 0 0 0 0 0 0 0 0 0 0 0 0 0 0 0 0 0 0 0 0 0 0 0 0 0 0 0 0 0 0 0 0 0 0 0 0 0 0
0 0 0 0 0 0 0 0 0 0 0 0 0 0 0 0 0 0 0 0 0 0 0 0 0 0 0 0 0 0 0 0 0 0 0 0 0 0 0 0 0 0 0
0 0 0 0 0 0 0 0 0 0 0 0 0 0 0 0 0 0 0 0 0 0 0 0 0 0 0 0 0 0 0 0 0 0 0 0 0 0 0 0 0 0 0
0 0 0 0 0 0 0 0 0 0 0 0 0 0 0 0 0 0 0 0 0 0 0 0 0 0 0 0 0 0 0 0 0 0 0 0 0 0 0 0 0 0 0
0 0 0 0 0 0 0 0 0 0 0 0 0 0 0 0 0 0 0 0 0 0 0 0 0 0 0 0 0 0 0 0 0 0 0 0 0 0 0 0 0 0 0
0 0 0 0 0 0 0 0 0 0 0 0 0 0 0 0 0 0 0 0 0 0 0 0 0 0 0 0 0 0 0 0 0 0 0 0 0 0 0 0 0 0 0
0 0 0 0 0 0 0 0 0 0 0 0 0 0 0 0 0 0 0 0 0 0 0 0 0 0 0 0 0 0 0 0 0 0 0 0 0 0 0 0 0 0 0
0 0 0 0 0 0 0 0 0 0 0 0 0 0 0 0 0 0 0 0 0 0 0 0 0 0 0 0 0 0 0 0 0 0 0 0 0 0 0 0 0 0 0
0 0 0 0 0 0 0 0 0 0 0 0 0 0 0 0 0 0 0 0 0 0 0 0 0 0 0 0 0 0 0 0 0 0 0 0 0 0 0 0 0 0 0
Wind_Speed
11 10 10 10 10 9 7 7 6 6 6 6 6 6 6 6 6 6 6 5 6 6 6 6 6 5 4 4 4 5 5 5 6 6 4 3 4 7 5 6 8 8 9
11 10 10 9 9 8 8 7 6 6 6 6 6 6 6 6 6 7 7 7 7 6 6 6 6 5 5 6 4 5 5 4 7 8 6 5 6 7 7 7 8 8 9
11 11 10 10 9 9 7 6 5 5 4 4 4 5 5 5 5 5 6 6 6 5 5 5 5 5 5 5 5 5 5 5 6 7 8 5 6 6 6 8 10 8 10
11 11 10 9 8 7 6 6 5 4 4 4 3 3 2 3 3 3 4 4 3 3 2 2 2 3 4 5 5 5 6 6 6 7 7 6 6 6 6 7 8 6 8
10 9 9 7 7 7 6 6 5 5 4 4 3 3 2 1 1 0 1 2 2 2 1 1 2 3 5 3 3 3 4 5 5 6 6 6 6 5 5 6 8 8 8
9 9 8 7 7 7 6 6 6 5 5 5 4 4 3 4 6 5 2 1 1 1 2 2 2 3 3 2 3 4 5 5 6 6 6 6 6 6 5 7 8 9 9
9 9 9 9 8 8 8 8 8 7 7 6 6 6 7 8 9 7 5 3 3 3 3 2 2 4 3 3 1 2 3 3 4 6 8 7 7 6 7 9 8 10 10
10 10 9 9 10 9 9 9 8 7 8 8 8 8 9 10 10 8 5 4 5 5 4 4 4 4 7 7 6 5 5 3 3 4 5 7 7 7 7 9 10 11 12
10 10 10 10 10 10 10 9 9 8 9 9 9 9 9 9 10 9 6 4 4 4 4 5 4 5 8 8 6 6 6 5 3 4 5 7 9 9 9 8 9 10 11
11 11 11 10 11 10 10 10 9 8 9 9 9 8 9 9 10 10 8 2 3 2 2 3 7 7 7 8 7 6 7 7 8 7 7 9 10 10 11 9 9 9 10
12 12 12 11 11 11 10 9 9 8 8 8 8 8 8 8 9 10 10 5 4 3 2 2 5 6 5 6 7 7 6 9 11 10 9 8 7 6 7 6 6 8 10
13 13 12 11 10 10 10 9 8 8 8 7 6 6 6 6 7 7 8 8 8 5 5 5 5 5 6 8 7 5 7 10 10 8 8 8 7 7 7 7 9 10 11
13 13 12 12 10 9 9 8 7 5 4 4 4 4 4 4 6 5 3 2 3 4 5 4 4 6 9 8 6 7 9 8 7 8 8 8 8 8 9 9 10 10 11
13 12 11 10 10 8 5 5 5 4 3 3 3 2 2 3 5 5 4 2 2 4 6 4 10 12 10 8 7 6 5 6 7 8 8 8 8 8 9 9 9 9 10
12 10 10 10 9 8 9 9 8 10 9 6 5 5 5 6 8 9 8 8 9 8 10 9 7 6 6 6 6 6 6 7 6 7 8 8 8 9 9 9 9 10 10
9 8 7 7 7 7 8 9 15 12 13 14 13 10 9 9 6 5 5 5 6 9 10 7 6 6 7 7 8 7 7 7 7 8 8 8 8 9 9 9 9 10 10
8 7 6 6 5 5 5 5 7 8 10 12 11 11 9 6 5 5 6 8 9 10 7 6 6 6 7 7 7 7 8 8 8 8 8 8 9 9 9 9 10 10 10
8 7 5 5 4 4 4 3 3 3 5 6 8 7 5 2 1 4 8 10 5 3 6 7 7 7 7 7 7 8 8 8 8 8 8 8 8 9 9 10 10 11 11
7 6 5 5 4 4 4 3 3 3 3 3 3 5 4 5 8 6 7 6 7 7 7 7 7 7 7 7 7 8 8 8 9 9 8 9 9 9 9 10 10 13 12
8 8 5 4 4 4 4 3 3 3 3 3 3 5 5 5 4 3 4 6 6 7 7 7 7 7 7 7 7 8 8 9 9 8 9 9 9 9 11 12 11 11 11
6 6 4 4 5 4 4 4 4 3 4 3 4 6 5 7 6 6 6 6 7 7 7 8 8 8 7 7 8 9 10 9 8 9 9 9 10 10 10 10 11 11 11
5 5 5 5 5 5 4 3 3 3 4 4 4 3 2 5 6 6 6 7 7 7 7 7 8 7 7 8 9 9 9 10 9 9 10 11 11 11 11 11 11 11 11
5 5 5 5 5 3 1 3 4 4 4 4 5 5 5 5 6 6 7 7 7 7 7 7 8 7 7 8 8 8 9 9 10 12 12 12 11 11 11 11 13 14 13
5 5 5 4 3 3 3 3 3 4 4 5 5 5 5 5 6 6 7 6 7 7 7 7 8 10 12 10 8 8 8 10 12 11 14 13 13 12 11 11 12 14 13
5 5 4 4 3 3 3 3 4 4 4 4 4 4 5 5 6 6 6 7 8 8 9 9 7 9 13 14 12 12 11 11 11 11 12 11 13 13 12 13 12 13 13
5 4 4 3 3 3 3 3 3 3 3 4 4 4 5 5 6 6 6 7 8 8 8 8 10 13 13 11 14 14 11 10 11 12 11 11 12 11 12 11 14 13 13
Wind_Direction
181 186 187 186 185 187 194 195 195 202 197 204 206 208 209 209 207 213 232 217 225 228 229 229 233 259 258 253 245 249 251 258 266 272 259 233 235 266 262 256 256 249 235
181 183 187 187 185 188 194 199 200 207 211 209 213 214 217 216 214 217 225 223 225 230 233 237 241 235 236 261 263 258 258 264 266 274 278 260 234 245 256 262 264 257 264
179 182 184 187 185 190 194 194 195 200 209 212 213 214 217 220 219 225 229 229 231 233 235 237 244 248 246 252 259 265 265 257 258 268 271 279 270 260 261 258 262 264 269
178 180 180 183 182 183 182 178 180 185 188 186 187 193 205 218 222 224 221 225 223 220 225 235 251 257 259 264 258 263 271 274 268 267 274 276 272 273 272 273 273 262 265
176 175 170 168 167 166 162 161 163 164 163 155 150 144 151 164 26 321 215 200 191 183 154 114 72 58 35 352 313 298 283 270 268 267 270 273 274 282 279 282 282 285 275
166 161 151 150 152 150 149 144 138 132 125 122 118 111 92 68 54 45 16 70 85 103 100 95 117 101 81 78 19 349 328 295 289 284 279 280 285 288 292 288 289 286 284
143 137 135 136 132 130 129 126 123 118 112 106 99 92 83 63 50 54 48 65 72 64 62 44 25 52 22 354 325 251 269 269 281 289 288 290 294 302 303 290 284 284 285
123 123 124 125 119 115 112 110 109 107 103 100 95 91 86 66 49 51 44 81 74 67 58 47 38 34 27 359 336 327 312 300 288 280 299 302 304 309 296 285 284 278 271
111 113 115 114 112 111 109 107 105 105 102 101 95 92 87 71 46 37 11 80 81 71 60 52 37 46 39 356 324 320 314 307 248 224 261 274 281 278 277 282 279 277 278
104 103 101 102 106 107 107 107 105 104 103 101 94 88 84 76 53 35 6 37 66 61 82 106 78 47 28 355 329 321 313 319 317 301 271 255 259 257 236 248 272 280 285
105 104 102 102 104 105 105 106 110 108 104 101 101 94 85 75 70 44 19 12 8 355 351 344 73 55 7 335 311 311 327 313 296 287 284 282 274 271 265 261 272 283 288
106 104 103 105 105 105 105 105 108 115 119 116 112 109 104 91 67 63 46 33 355 343 336 348 33 14 324 300 296 325 303 286 282 290 294 296 300 303 307 306 297 288 282
106 103 103 101 100 106 112 118 123 126 122 120 121 113 101 97 114 126 122 94 352 330 346 16 319 286 286 271 231 257 276 282 303 305 303 307 310 312 307 297 288 282 277
105 105 105 105 102 93 89 92 87 78 82 86 73 65 75 75 37 19 358 353 269 301 327 283 233 237 250 275 286 268 291 323 323 311 313 313 311 307 303 305 306 305 298
107 108 108 102 96 88 70 46 53 50 35 27 33 30 20 47 45 22 360 1 351 354 323 300 309 324 323 330 331 333 327 324 319 318 315 312 309 307 306 307 304 302 298
110 110 109 110 111 113 108 91 59 68 70 64 50 42 69 64 56 32 17 350 319 311 302 314 336 338 336 335 331 329 329 330 326 319 313 311 309 308 307 307 305 301 300
97 97 102 104 110 111 115 120 120 104 89 83 77 66 62 62 44 8 334 312 287 285 299 339 342 337 333 329 327 324 323 323 320 315 314 313 312 310 308 307 306 305 303
99 93 90 90 86 84 83 85 92 112 126 117 113 108 108 106 32 319 307 300 300 292 343 346 341 338 333 330 328 327 324 322 320 317 314 312 311 309 307 306 304 304 304
85 84 78 82 84 81 79 77 70 62 62 64 94 134 170 203 207 235 282 335 353 351 351 345 341 337 333 330 328 325 322 319 318 317 314 314 313 311 306 304 302 301 296
82 64 61 82 83 81 71 62 58 51 51 44 32 25 2 334 343 358 345 357 346 348 344 341 339 333 330 328 325 324 321 317 317 316 316 314 313 309 304 302 300 299 296
101 103 103 82 71 65 62 57 52 41 37 25 45 63 346 326 351 356 351 354 348 345 341 337 331 330 331 329 328 324 320 318 319 320 318 313 309 306 303 299 297 295 295
96 93 83 76 76 61 49 58 53 45 36 19 16 93 198 312 359 358 354 349 347 342 338 334 330 332 336 335 328 322 319 318 323 323 317 311 306 302 300 299 298 297 295
94 95 92 86 86 100 73 57 46 36 25 17 11 4 5 2 355 357 350 346 343 339 339 335 328 331 340 333 325 320 319 327 330 320 311 304 302 301 300 299 298 298 297
91 89 89 88 81 75 63 54 42 33 21 13 8 4 2 358 351 354 346 346 342 339 339 333 330 333 336 332 325 322 339 341 325 310 305 300 298 297 297 296 296 296 298
94 88 86 79 72 64 55 47 40 28 18 9 8 2 358 353 351 351 348 345 339 338 338 335 336 337 335 332 337 341 345 322 306 308 304 296 294 295 295 296 298 300 301
92 87 81 78 69 58 49 42 38 25 19 15 10 3 355 351 352 350 346 344 339 337 336 335 337 336 333 338 348 338 321 312 310 305 299 293 292 296 304 304 305 305 304